Starlink 3931

operational
NORAD ID: 52548 Int'l Des: 2022-051 Owner: SPXS Country: US Constellation: starlink
LEOCIRCULAR

About Starlink 3931

Description loading...

Live Position

Loading 3D Globe...

Upcoming Passes

Altitude History

Altitude vs Time

uPlot chart will show altitude changes over time

Two-Line Element Set

1 52548U 22051R 25302.43698683 -.00001070 00000-0 -49134-4 0 9998
2 52548 53.2197 358.3345 0001766 101.1248 258.9943 15.08848527191639
Epoch: Oct 29, 2025 • Age: 16 hours

Current Status

Altitude 550.4 km
Velocity 7.59 km/s
Sub-Earth Point -31.46°S, 103.41°W
Launch Date May 13, 2022
Age 3.4 years
Type internet

Technical Details

Classification Payload
Mass 297.00 kg
Dry Mass 275.00 kg
Total Mass 297.00 kg
Length 0.20 m
Diameter 2.80 m
Span 9.00 m
Shape Box + pan
Manufacturer SPXS
Bus Type Starlink
Phase Status In Orbit
Owner/State SPXS/US

Large Constellations

Loading constellations...